CAPE
0 0 0 0 0 0 0 0 0 0 0 0 0 0 0 0 0 0 0 0 0 0 0 0 0 4 2 3 1 0 0 0 0 0 7 33 153 397 318 236 158 74 28
0 0 0 0 0 0 0 0 0 0 0 0 0 0 0 0 0 0 0 0 0 0 0 0 0 0 8 9 6 2 0 0 0 0 1 4 58 316 282 205 138 77 49
0 0 0 0 0 0 0 0 0 0 0 0 0 0 0 0 0 0 0 0 0 0 0 0 0 0 0 4 10 7 1 0 0 0 0 0 15 245 264 170 129 86 57
0 0 0 0 0 0 0 0 0 0 0 0 0 0 0 0 0 0 0 0 0 0 0 0 0 0 0 0 3 7 6 0 0 0 0 0 1 204 297 188 134 107 53
2 0 0 0 0 0 0 0 0 0 0 0 0 0 0 0 0 0 0 0 0 0 0 0 0 0 0 0 0 4 8 9 0 0 0 0 0 39 299 214 158 117 58
12 0 0 0 0 0 0 0 0 0 0 0 0 0 0 0 0 0 0 0 0 0 0 0 0 0 0 0 0 0 10 4 6 0 0 0 0 1 303 262 212 143 75
0 0 0 0 0 0 0 0 0 0 0 0 0 0 0 0 0 0 0 0 0 0 0 0 0 0 0 0 0 0 7 7 7 2 0 0 0 1 261 292 243 151 90
0 0 0 0 0 0 0 0 0 0 0 0 0 0 0 0 0 0 0 0 0 0 0 0 0 0 0 0 0 0 0 9 7 14 1 1 0 0 120 345 278 165 76
0 0 0 0 0 0 0 0 0 0 0 0 0 0 0 0 0 0 0 0 0 0 0 0 0 0 0 0 0 0 0 0 2 11 9 3 0 6 1 306 196 179 76
0 0 0 0 0 0 0 0 0 0 0 0 0 0 0 0 0 0 0 0 0 0 0 0 0 0 0 0 0 0 0 0 0 1 16 15 18 8 1 366 288 170 81
0 0 0 0 0 0 0 0 0 0 0 0 0 0 0 0 0 0 0 0 0 0 0 0 0 0 0 0 0 0 0 0 0 0 1 0 0 0 1 407 305 172 70
0 0 0 0 0 0 0 0 0 0 0 0 0 0 0 0 0 0 0 0 0 0 0 0 0 0 0 0 0 0 0 0 0 0 0 2 0 0 1 170 339 164 111
0 0 0 0 0 0 0 0 0 0 0 0 0 0 0 0 0 0 0 0 0 0 0 0 0 0 0 0 0 0 0 0 0 0 0 0 0 0 0 9 271 199 100
0 0 0 0 0 0 0 0 0 0 0 0 0 0 0 0 0 0 0 0 0 0 0 0 0 0 0 0 0 0 0 0 0 0 0 0 0 0 0 1 64 36 13
0 0 0 0 0 0 1 2 0 0 0 0 0 0 0 0 0 0 0 0 0 0 0 0 0 0 0 0 0 0 0 0 0 0 0 0 0 0 0 1 0 0 0
0 0 0 0 0 0 0 4 4 1 2 0 0 0 0 0 0 0 0 0 0 0 0 0 0 0 0 6 0 0 0 0 0 0 0 0 0 0 0 0 0 0 0
0 0 0 0 0 0 0 0 4 5 0 0 0 0 0 0 0 0 0 0 0 0 0 0 0 0 0 11 0 0 0 0 0 0 0 0 0 0 0 1 1 0 0
0 2 5 7 0 0 0 0 5 0 0 0 0 0 0 0 0 0 0 0 0 0 0 0 0 0 0 4 0 0 0 0 0 0 0 0 0 0 1 1 1 0 0
10 3 2 7 1 1 0 1 0 0 0 1 0 0 0 0 0 0 0 0 0 0 0 0 0 0 0 1 0 0 0 5 0 0 0 0 1 1 1 1 1 1 0
2 6 2 1 0 1 1 0 3 2 2 0 0 0 0 0 0 0 0 0 0 0 0 0 0 0 0 0 0 0 0 1 0 3 1 1 0 1 1 1 1 0 0
4 0 0 0 2 0 0 0 1 0 1 3 1 2 0 0 1 0 0 0 0 0 0 0 0 0 1 12 0 0 1 0 0 0 1 1 0 0 1 1 0 1 0
0 0 7 0 0 0 5 8 3 2 3 0 0 0 1 7 2 0 0 0 0 0 0 0 0 0 2 0 0 0 8 0 3 4 2 4 3 0 0 0 1 1 1
0 3 4 0 2 0 6 13 9 1 0 0 1 1 1 11 5 0 0 0 0 0 0 0 0 0 0 0 0 0 6 0 0 0 0 0 2 0 0 1 1 1 1
0 0 1 0 0 1 4 12 6 0 0 1 0 0 6 5 5 0 0 0 0 0 0 0 0 0 0 0 0 5 2 0 0 0 0 0 1 1 0 0 0 1 1
0 0 4 0 0 0 12 11 1 0 0 0 0 0 0 5 1 3 3 0 0 0 0 0 0 0 0 1 0 6 1 0 0 0 0 0 0 0 0 0 0 0 0
0 0 6 6 3 1 15 6 2 1 1 0 0 1 0 0 0 0 0 0 0 0 0 0 0 0 8 1 22 0 0 0 0 0 0 0 0 0 0 0 0 0 0
CIN
-0 -0 -0 -0 -0 -0 -0 -0 -0 -0 -0 -0 -0 -0 -0 -0 -0 -0 -0 -0 -0 -0 -0 -0 -0 -0 -0 -0 -0 -0 -0 -0 -0 -0 -154 -122 -34 -4 -3 -1 -1 -6 -31
-0 -0 -0 -0 -0 -0 -0 -0 -0 -0 -0 -0 -0 -0 -0 -0 -0 -0 -0 -0 -0 -0 -0 -0 -0 -0 -0 -1 -1 -0 -0 -0 -0 -0 -0 -159 -78 -5 -5 -2 -8 -20 -26
-0 -0 -0 -0 -0 -0 -0 -0 -0 -0 -0 -0 -0 -0 -0 -0 -0 -0 -0 -0 -0 -0 -0 -0 -0 -0 -0 -0 -0 -1 -0 -0 -0 -0 -0 -0 -131 -16 -9 -4 -5 -10 -11
-0 -0 -0 -0 -0 -0 -0 -0 -0 -0 -0 -0 -0 -0 -0 -0 -0 -0 -0 -0 -0 -0 -0 -0 -0 -0 -0 -0 -0 -0 -0 -0 -0 -0 -0 -0 -45 -14 -5 -5 -2 -5 -18
-47 -0 -0 -0 -0 -0 -0 -0 -0 -0 -0 -0 -0 -0 -0 -0 -0 -0 -0 -0 -0 -0 -0 -0 -0 -0 -0 -0 -0 -0 -0 -0 -0 -0 -0 -0 -0 -89 -5 -4 -4 -7 -18
-90 -42 -0 -0 -0 -0 -0 -0 -0 -0 -0 -0 -0 -0 -0 -0 -0 -0 -0 -0 -0 -0 -0 -0 -0 -0 -0 -0 -0 -0 -0 -0 -0 -0 -0 -0 -0 -20 -0 -0 -1 -1 -9
-0 -0 -0 -0 -0 -0 -0 -0 -0 -0 -0 -0 -0 -0 -0 -0 -0 -0 -0 -0 -0 -0 -0 -0 -0 -0 -0 -0 -0 -0 -0 -0 -0 -0 -0 -0 -0 -0 -5 -1 -0 -1 -10
-0 -0 -0 -0 -0 -0 -0 -0 -0 -0 -0 -0 -0 -0 -0 -0 -0 -0 -0 -0 -0 -0 -0 -0 -0 -0 -0 -0 -0 -0 -0 -0 -0 -0 -0 -0 -0 -0 -25 -0 -0 -0 -14
-0 -0 -0 -0 -0 -0 -0 -0 -0 -0 -0 -0 -0 -0 -0 -0 -0 -0 -0 -0 -0 -0 -0 -0 -0 -0 -0 -0 -0 -0 -0 -0 -1 -10 -0 -0 -0 -81 -0 -5 -2 -2 -8
-0 -0 -0 -0 -0 -0 -0 -0 -0 -0 -0 -0 -0 -0 -0 -0 -12 -0 -0 -0 -0 -0 -0 -0 -0 -0 -0 -0 -0 -0 -0 -0 -0 -19 -5 -11 -0 -0 -12 -0 -0 -2 -3
-0 -0 -0 -0 -0 -0 -0 -0 -0 -0 -0 -0 -0 -0 -0 -0 -0 -0 -0 -0 -0 -0 -0 -0 -0 -0 -0 -0 -0 -0 -0 -0 -0 -0 -9 -0 -0 -0 -0 -0 -0 -0 -6
-0 -0 -0 -0 -0 -0 -0 -0 -0 -0 -0 -0 -0 -0 -0 -0 -0 -0 -0 -0 -0 -0 -0 -0 -0 -0 -0 -0 -0 -0 -0 -0 -0 -0 -0 -17 -0 -0 -0 -15 -0 -5 -1
-0 -0 -0 -0 -0 -0 -0 -0 -0 -0 -0 -0 -0 -0 -0 -0 -0 -0 -0 -0 -0 -0 -0 -0 -0 -0 -0 -0 -0 -0 -11 -0 -0 -0 -0 -0 -0 -0 -0 -0 -2 -1 -0
-0 -0 -0 -0 -0 -0 -0 -0 -0 -0 -0 -0 -0 -0 -0 -0 -0 -0 -0 -0 -0 -0 -0 -0 -0 -0 -0 -0 -0 -0 -0 -0 -0 -0 -0 -0 -0 -0 -0 -0 -18 -14 -12
-0 -0 -0 -0 -0 -0 -0 -0 -0 -0 -0 -0 -0 -0 -0 -0 -0 -0 -0 -0 -0 -0 -0 -0 -0 -0 -0 -0 -0 -0 -0 -0 -0 -0 -0 -0 -0 -0 -0 -0 -0 -0 -0
-0 -0 -0 -0 -0 -0 -0 -0 -0 -0 -3 -0 -0 -0 -0 -0 -0 -0 -0 -0 -0 -0 -0 -0 -0 -0 -0 -49 -0 -0 -0 -0 -0 -0 -0 -0 -0 -0 -0 -0 -0 -0 -0
-0 -0 -0 -0 -0 -0 -0 -0 -0 -0 -0 -0 -0 -0 -0 -0 -0 -0 -0 -0 -0 -0 -0 -0 -0 -0 -0 -43 -0 -0 -0 -0 -0 -0 -0 -0 -0 -0 -0 -0 -0 -0 -0
-0 -0 -0 -0 -0 -0 -0 -0 -0 -0 -0 -0 -0 -0 -0 -0 -0 -0 -0 -0 -0 -0 -0 -0 -0 -2 -0 -39 -0 -0 -0 -0 -0 -0 -0 -0 -0 -0 -0 -0 -0 -0 -0
-0 -3 -0 -0 -0 -0 -0 -1 -0 -0 -0 -0 -0 -0 -0 -0 -0 -0 -0 -0 -0 -0 -0 -0 -0 -0 -0 -49 -0 -0 -0 -38 -0 -0 -0 -0 -0 -0 -0 -0 -0 -0 -0
-3 -0 -0 -0 -0 -3 -0 -0 -0 -0 -0 -0 -0 -0 -0 -0 -0 -0 -0 -0 -0 -0 -0 -0 -0 -0 -0 -16 -0 -0 -0 -26 -0 -0 -0 -0 -0 -0 -0 -0 -0 -0 -0
-0 -0 -0 -0 -2 -0 -0 -0 -0 -0 -0 -0 -0 -1 -0 -0 -0 -0 -0 -0 -0 -0 -0 -0 -0 -0 -28 -29 -0 -0 -13 -0 -0 -1 -0 -0 -0 -0 -0 -0 -0 -0 -0
-0 -0 -0 -3 -0 -0 -0 -0 -0 -0 -0 -0 -0 -0 -0 -0 -0 -0 -0 -0 -0 -0 -0 -0 -0 -0 -27 -0 -0 -0 -35 -0 -1 -0 -0 -0 -0 -0 -0 -0 -0 -0 -0
-0 -0 -0 -0 -0 -0 -0 -0 -0 -0 -0 -0 -0 -0 -0 -0 -0 -0 -0 -0 -0 -0 -0 -0 -0 -41 -0 -0 -0 -0 -25 -0 -0 -0 -0 -0 -0 -0 -0 -0 -0 -0 -0
-0 -0 -0 -0 -0 -0 -0 -0 -0 -0 -0 -0 -0 -0 -0 -0 -0 -0 -0 -0 -0 -0 -0 -0 -0 -0 -0 -0 -51 -27 -20 -0 -0 -0 -0 -0 -0 -0 -0 -0 -0 -0 -0
-0 -0 -0 -0 -0 -0 -0 -0 -0 -0 -0 -0 -0 -0 -0 -0 -0 -0 -0 -0 -0 -0 -0 -0 -0 -0 -0 -0 -3 -62 -0 -0 -0 -0 -0 -0 -0 -0 -0 -0 -0 -0 -0
-0 -0 -0 -0 -0 -0 -0 -0 -0 -0 -0 -0 -0 -0 -0 -0 -0 -0 -0 -0 -0 -0 -0 -0 -0 -0 -73 -0 -59 -0 -14 -0 -0 -0 -0 -0 -0 -0 -0 -0 -0 -0 -0
Wind_Speed
1 1 0 2 4 4 4 4 2 1 1 1 2 3 3 3 4 1 2 5 3 2 3 6 6 6 3 2 2 2 2 3 4 4 6 7 5 13 15 14 15 15 14
3 2 0 1 2 2 3 3 3 3 0 0 3 3 5 3 3 2 3 3 7 6 5 6 8 7 6 2 3 4 1 2 2 3 2 6 5 10 15 15 15 14 14
6 5 4 2 3 3 3 3 3 2 1 3 4 5 4 5 4 5 4 3 3 9 8 7 7 9 9 6 5 3 4 2 2 1 2 3 6 8 15 15 15 14 14
8 6 5 5 5 3 3 3 3 3 3 3 3 5 3 4 6 6 4 5 3 3 8 10 8 8 10 10 8 6 5 4 4 4 1 1 3 7 16 16 16 15 14
8 8 6 5 5 3 2 3 4 4 3 3 4 4 4 4 5 3 5 5 6 4 4 9 11 9 9 11 12 9 7 4 5 5 4 3 2 1 17 17 17 16 15
6 5 4 5 5 4 4 3 4 4 4 5 4 2 3 3 3 4 5 3 5 6 6 6 4 5 11 11 13 12 10 8 6 7 7 4 6 3 16 18 18 17 17
3 4 5 6 5 5 6 6 4 5 4 3 2 3 3 5 5 5 5 5 4 5 5 5 4 4 4 12 14 13 12 9 8 9 9 7 5 5 13 19 18 18 18
7 7 6 6 7 4 5 5 5 3 3 4 4 2 2 5 4 6 5 5 7 4 4 6 6 6 5 4 7 14 14 12 10 10 9 9 7 4 8 20 20 19 19
5 5 6 6 7 6 5 6 5 6 4 4 6 5 2 4 2 3 6 5 4 3 4 4 6 6 5 5 7 10 12 12 9 12 11 10 8 5 2 21 19 20 19
6 5 6 7 7 6 7 7 6 5 5 5 2 4 2 5 3 4 4 2 3 3 5 3 4 6 6 4 9 11 12 10 9 8 5 4 7 5 4 23 22 21 20
5 7 6 6 6 6 9 9 6 7 5 5 4 3 2 2 2 4 2 4 3 3 4 4 4 5 6 5 4 7 12 12 9 5 4 2 4 2 5 22 23 22 21
4 7 7 6 7 7 6 7 10 9 7 6 4 5 5 4 4 3 2 3 3 5 5 4 4 4 5 4 6 9 13 13 11 9 5 7 7 6 7 16 25 24 22
3 4 5 5 4 4 5 8 6 9 9 6 7 5 4 5 4 4 5 3 1 4 1 3 4 4 4 4 5 8 13 12 10 10 9 9 7 8 7 8 27 26 24
2 3 4 4 5 6 6 4 5 6 6 8 9 6 4 4 4 4 5 5 1 2 3 4 3 4 4 4 6 11 7 12 11 10 10 10 10 9 7 9 26 25 24
4 6 5 4 4 7 8 10 5 5 5 5 9 8 4 4 4 4 4 4 5 1 3 3 2 4 3 4 6 6 6 10 12 11 11 10 10 10 8 11 23 21 21
5 6 6 6 6 7 6 7 8 6 1 1 3 9 6 4 5 4 4 4 3 4 1 1 3 4 4 4 8 7 7 10 12 12 11 10 10 10 11 9 21 19 16
7 7 7 7 7 6 6 5 7 7 6 4 3 5 8 7 5 4 4 3 4 3 2 4 5 4 2 3 4 3 5 6 6 13 11 10 9 9 11 12 22 20 15
7 9 10 10 10 8 8 8 7 7 9 6 4 4 5 6 7 5 4 5 4 3 3 4 7 2 2 1 4 4 3 4 4 8 12 12 10 12 13 17 20 19 15
7 6 7 7 7 9 9 8 8 9 9 9 8 6 2 6 7 5 4 5 3 2 2 1 5 2 1 0 1 2 3 1 3 7 9 10 10 13 19 21 21 22 13
5 7 7 8 7 6 9 9 9 8 7 7 8 9 11 7 4 10 8 6 4 3 2 2 4 3 1 4 2 2 2 2 2 3 4 5 12 15 24 23 23 23 18
6 6 7 6 7 6 5 10 10 10 9 7 9 10 11 14 14 6 7 6 5 4 2 3 3 2 1 0 2 1 2 2 2 2 2 4 7 10 10 15 16 20 20
6 7 6 6 4 3 10 14 11 8 9 9 8 9 11 21 16 9 7 8 7 6 4 2 2 2 1 2 2 2 2 2 3 3 5 7 6 9 9 9 13 18 19
6 8 8 8 6 5 6 14 14 7 8 9 8 8 8 7 14 10 7 6 9 9 5 2 1 1 2 2 3 2 4 4 1 4 10 6 5 8 6 7 17 17 18
7 6 8 8 7 5 11 12 12 8 9 8 7 8 10 11 11 11 10 9 6 5 4 2 4 4 4 6 7 5 5 5 7 5 6 5 5 7 8 8 14 20 19
6 7 6 8 9 6 11 13 9 7 7 8 7 7 7 10 18 18 12 7 6 4 3 5 8 7 8 11 9 7 7 8 5 2 3 6 1 6 6 9 9 13 20
5 5 8 6 8 6 9 14 8 5 7 5 5 8 13 9 17 12 8 6 6 4 3 3 4 5 6 2 8 1 7 5 7 4 1 5 2 3 5 5 7 7 9
Wind_Direction
171 210 236 163 182 181 188 203 237 233 159 299 279 223 224 254 303 165 200 177 168 229 266 245 241 273 290 314 0 12 354 6 11 56 58 64 79 150 142 139 135 134 133
164 140 20 332 306 275 256 197 161 131 120 12 304 249 238 227 225 228 181 216 212 230 252 261 243 240 264 334 354 346 331 344 341 65 40 73 87 152 144 140 138 136 136
188 184 194 241 256 250 243 223 217 185 257 279 268 267 243 224 228 226 233 199 230 237 241 250 248 240 241 250 272 318 311 285 289 314 123 36 55 141 145 143 141 140 138
188 179 185 201 218 234 233 217 210 227 226 219 246 258 245 223 241 243 219 202 208 196 240 239 250 242 236 239 245 247 277 246 246 241 76 163 53 130 150 147 145 142 140
202 194 194 197 198 189 202 227 235 181 201 228 238 243 258 257 231 203 223 240 221 197 191 233 241 243 238 235 240 239 247 277 226 222 221 160 218 91 153 151 149 146 143
217 189 181 193 198 199 220 222 218 243 190 204 228 260 262 257 246 261 242 236 215 217 211 210 208 220 239 237 233 231 231 230 242 216 217 212 205 247 163 156 153 148 143
220 212 216 202 193 186 202 209 203 219 257 202 126 314 294 280 260 232 225 219 238 235 218 206 182 202 237 234 229 231 228 231 234 221 210 212 212 213 180 159 155 150 147
246 250 211 196 197 185 198 211 210 211 209 206 182 130 287 316 300 254 231 216 229 240 225 214 196 193 209 213 221 224 223 223 229 229 205 205 208 211 198 161 156 151 147
309 279 235 215 207 189 197 198 189 191 217 238 188 159 83 230 317 310 250 184 208 228 230 203 220 208 200 206 216 223 224 227 244 271 193 203 204 187 275 160 153 151 150
285 274 245 226 209 198 194 196 189 180 159 212 236 193 178 154 153 338 347 280 212 232 217 236 214 214 213 188 213 203 208 211 232 266 176 129 197 204 267 159 157 154 153
264 265 263 246 227 213 209 197 187 186 178 171 180 175 184 199 132 132 274 320 342 260 228 217 200 210 211 214 189 200 197 198 207 252 212 85 311 337 297 169 158 156 157
281 36 45 42 34 18 327 242 198 191 184 177 181 174 174 162 187 145 170 247 238 278 235 236 219 203 214 210 207 192 191 191 193 195 226 249 256 278 293 190 159 157 157
29 15 23 18 13 18 357 357 309 210 194 184 181 194 181 185 159 168 151 185 189 300 217 211 214 196 204 205 211 172 190 185 179 191 200 234 250 259 277 256 159 159 159
267 281 280 279 282 298 301 320 329 312 224 193 185 173 177 188 168 157 155 142 57 315 327 246 231 207 209 204 191 165 167 175 185 192 202 218 234 239 260 298 157 160 158
270 293 276 262 298 287 257 268 257 290 303 214 192 177 159 174 166 156 136 132 140 118 299 282 184 226 218 188 183 168 168 191 195 197 200 209 222 223 234 275 155 154 157
260 254 249 238 233 234 236 241 236 218 229 155 188 174 165 148 153 149 138 131 112 129 222 322 323 244 180 168 169 163 191 197 202 199 202 208 211 206 220 252 144 152 157
270 261 255 245 231 220 210 226 238 205 168 158 96 147 147 135 142 138 133 130 127 126 138 305 291 232 121 165 168 185 200 200 209 205 198 200 197 203 214 187 145 146 144
279 270 261 247 242 230 226 204 220 216 178 185 161 88 115 124 133 142 137 145 132 131 122 302 312 336 116 208 176 194 227 222 208 194 189 206 202 205 176 143 137 132 134
284 281 283 276 262 230 215 211 198 209 201 187 174 157 198 104 156 153 152 146 126 137 155 250 289 291 140 219 195 273 246 122 100 156 191 207 188 174 145 129 131 125 129
318 310 290 267 266 252 220 195 194 198 191 190 186 171 188 172 178 175 162 153 157 158 168 264 284 278 208 267 147 197 315 60 96 122 157 174 166 167 141 141 145 137 145
328 309 321 289 264 229 217 186 192 192 185 182 177 184 183 166 165 189 145 150 168 166 172 251 285 279 299 78 174 242 209 140 132 122 114 134 152 150 139 140 142 141 135
341 349 337 330 330 267 205 186 161 170 170 175 168 171 176 184 166 190 150 153 172 171 184 195 245 261 241 215 222 212 164 115 165 145 121 122 147 139 143 147 138 134 129
356 12 6 13 13 20 151 161 150 157 163 167 168 171 160 163 166 173 197 184 211 183 167 161 253 276 294 240 206 221 200 167 82 86 103 62 46 72 40 108 128 124 124
13 20 24 22 43 58 106 127 129 135 144 143 146 147 162 171 177 157 182 192 170 172 145 201 241 271 272 288 243 193 157 108 87 56 96 83 31 67 51 46 101 118 119
18 30 31 43 48 43 94 100 95 100 117 125 133 138 142 152 167 166 171 152 159 154 182 248 273 310 304 289 226 124 134 152 116 58 54 113 37 80 52 38 39 89 113
16 24 42 40 48 53 94 110 99 111 117 128 127 158 142 152 150 163 150 148 137 169 189 258 312 312 297 212 68 99 141 143 118 90 34 104 108 135 70 15 31 50 81